Location: Home
(42.5358°N, 72.7383°W)
Time: 10:36:40
(UTC-04:00)

Tiros 1 - Visible Passes

Search period start: 27 May 2022 00:00
Search period end: 06 June 2022 00:00
Orbit: 629 x 663 km, 48.4° (Epoch: 26 May)

Date Brightness Start Highest point End Pass type
(mag) Time Alt. Az. Time Alt. Az. Time Alt. Az.
27 May 9.3 00:35:12 16° E 00:35:12 16° E 00:36:13 10° ENE visible
27 May 7.4 02:12:48 46° W 02:14:00 65° NNW 02:18:39 10° ENE visible
27 May 8.4 03:52:18 10° WNW 03:56:41 40° N 04:01:07 10° ENE visible
28 May 8.0 00:59:09 40° ENE 00:59:09 40° ENE 01:02:12 10° ENE visible
28 May 8.0 02:36:45 18° W 02:39:57 46° NNW 02:44:28 10° ENE visible
28 May 8.4 04:18:18 10° WNW 04:22:45 43° N 04:27:14 10° E visible
28 May 9.6 23:45:24 11° ENE 23:45:24 11° ENE 23:45:30 10° ENE visible
29 May 7.3 01:22:59 65° NW 01:23:20 69° NNW 01:28:00 10° ENE visible
29 May 8.4 03:01:37 10° WNW 03:06:00 40° N 03:10:25 10° ENE visible
30 May 8.3 00:09:04 30° ENE 00:09:04 30° ENE 00:11:32 10° ENE visible
30 May 8.0 01:46:38 22° WNW 01:49:16 47° NNW 01:53:47 10° ENE visible
30 May 8.4 03:27:38 10° WNW 03:32:04 42° N 03:36:32 10° E visible
31 May 7.2 00:32:24 70° NW 00:32:40 73° NNW 00:37:19 10° ENE visible
31 May 8.4 02:10:56 10° WNW 02:15:18 40° N 02:19:43 10° ENE visible
31 May 7.9 03:53:30 10° WNW 03:58:04 54° NNE 04:02:40 10° E visible
31 May 7.5 23:17:23 46° E 23:17:23 46° E 23:20:51 10° ENE visible
01 Jun 8.0 00:54:49 14° W 00:58:35 49° NNW 01:03:07 10° ENE visible
01 Jun 8.4 02:36:58 10° WNW 02:41:22 41° N 02:45:49 10° ENE visible
01 Jun 7.2 04:19:15 10° WNW 04:23:56 84° NNE 04:28:38 10° ESE visible
01 Jun 7.9 21:56:16 10° SSW 22:00:09 27° SE 22:04:03 10° E visible
01 Jun 7.1 23:37:23 10° WSW 23:42:00 77° NNW 23:46:39 10° ENE visible
02 Jun 8.4 01:20:14 10° WNW 01:24:37 40° N 01:29:01 10° ENE visible
02 Jun 8.0 03:02:50 10° WNW 03:07:23 52° NNE 03:11:57 10° E visible
02 Jun 7.1 22:21:08 10° SW 22:25:39 55° SE 22:30:11 10° ENE visible
03 Jun 7.9 00:03:24 10° W 00:07:54 51° NNW 00:12:25 10° ENE visible
03 Jun 8.4 01:46:18 10° WNW 01:50:40 40° N 01:55:05 10° ENE visible
03 Jun 7.2 03:28:36 10° WNW 03:33:16 79° NNE 03:37:57 10° ESE visible
03 Jun 8.1 21:05:47 10° SSW 21:09:32 25° SE 21:13:17 10° E visible
03 Jun 7.1 22:46:44 10° WSW 22:51:21 81° NNW 22:55:59 10° ENE visible
04 Jun 8.4 00:29:32 10° WNW 00:33:54 41° N 00:38:19 10° ENE visible
04 Jun 8.0 02:12:10 10° WNW 02:16:41 50° NNE 02:21:13 10° E visible
04 Jun 7.1 03:54:25 10° WNW 03:58:58 58° SSW 04:03:34 10° SE visible
04 Jun 7.2 21:30:33 10° SW 21:35:00 51° SE 21:39:29 10° ENE visible
04 Jun 7.9 23:12:42 10° W 23:17:13 53° NNW 23:21:45 10° ENE visible
05 Jun 8.4 00:55:36 10° WNW 00:59:58 40° N 01:04:22 10° ENE visible
05 Jun 7.2 02:37:57 10° WNW 02:42:36 75° NNE 02:47:15 10° ESE visible
05 Jun 7.9 04:20:29 10° W 04:24:29 29° SW 04:28:30 10° SSE visible
05 Jun 7.1 21:56:03 10° WSW 22:00:41 86° NNW 22:05:18 10° ENE visible
05 Jun 8.4 23:38:50 10° WNW 23:43:12 41° N 23:47:37 10° ENE visible
